SCP
0 0 0 0 0 0 0 0 0 0 0 0 0 0 -0 0 0 0 0 0 -0 -0 -0 -0 -0 0 -0 -0 -0 -0 -0 -0 -0 -0 -0 -0 -0 -0 -0 -0 -0 -0 -0 0 0 0 -0 -0 -0
0 0 0 0 0 0 0 0 0 0 0 0 0 0 0 0 0 0 0 -0 -0 0 0 -0 -0 -0 -0 -0 -0 -0 -0 -0 -0 -0 -0 -0 -0 -0 -0 -0 -0 -0 -0 -0 0 0 0 0 0
0 0 0 0 0 0 0 0 0 0 0 0 0 0 0 0 0 0 0 0 0 0 0 0 -0 -0 -0 -0 -0 -0 -0 -0 -0 -0 -0 -0 -0 -0 -0 -0 0 0 0 0 0 0 0 0 0
0 0 0 0 0 0 0 0 0 0 0 0 0 0 0 0 0 0 0 0 0 0 0 0 -0 -0 -0 -0 -0 -0 -0 -0 -0 -0 -0 -0 -0 -0 -0 -0 -0 0 0 0 0 0 0 0 0
0 0 0 0 0 0 0 0 0 0 0 0 0 0 0 0 0 0 0 0 0 0 0 0 -0 -0 -0 -0 -0 -0 -0 -0 -0 -0 -0 -0 -0 -0 -0 -0 -0 -0 -0 0 0 0 0 0 0
0 0 0 0 0 0 0 0 0 0 0 0 0 0 0 0 0 0 0 0 0 0 0 0 0 0 -0 -0 -0 -0 -0 -0 -0 -0 -0 -0 -0 -0 -0 -0 -0 -0 0 0 0 0 0 0 0
0 0 0 0 0 0 0 0 0 0 0 0 0 0 0 0 0 0 0 0 0 0 0 0 0 0 -0 -0 -0 -0 -0 -0 -0 -0 -0 -0 -0 -0 -0 -0 -0 -0 0 0 0 0 0 0 0
0 0 0 0 0 0 0 0 0 0 0 0 0 0 0 0 0 0 0 0 0 0 0 0 0 0 0 0 0 0 0 -0 0 -0 -0 -0 -0 -0 -0 -0 -0 -0 -0 -0 0 0 0 0 0
0 0 0 0 0 0 0 0 0 0 0 0 0 0 0 0 0 0 0 0 0 0 0 0 0 0 0 0 0 0 0 0 0 0 0 0 0 0 0 0 0 0 0 -0 0 0 0 0 0
0 0 0 0 0 0 0 0 0 0 0 0 0 0 0 0 0 0 0 0 0 0 0 0 0 0 0 0 0 0 0 0 0 0 0 0 0 0 0 0 0 0 0 0 0 0 0 0 0
0 0 0 0 0 0 0 0 0 0 0 0 0 0 0 0 0 0 0 0 0 0 0 0 0 0 0 0 0 0 0 0 0 0 0 0 0 0 0 0 0 0 0 0 0 0 0 0 0
0 0 0 0 0 0 0 0 0 0 0 0 0 0 0 0 0 0 0 0 0 0 0 0 0 0 0 0 0 0 0 0 0 0 0 0 0 0 0 0 0 0 0 0 0 0 0 0 0
-0 0 0 0 0 -0 -0 -0 0 0 0 0 0 0 0 0 0 0 0 0 0 0 0 0 0 0 0 0 0 0 0 0 0 0 0 0 0 0 0 0 0 0 0 0 0 0 0 0 0
0 0 -0 -0 -0 -0 0 0 0 0 -0 0 0 0 0 0 0 0 0 0 0 0 0 0 0 0 0 0 0 0 0 0 0 0 0 0 0 0 0 0 0 0 0 0 0 0 0 0 0
0 -0 0 0 -0 0 0 -0 0 -0 -0 0 0 0 0 0 0 0 0 0 0 0 0 0 0 0 0 0 0 0 0 0 0 0 0 0 0 0 0 0 0 0 0 0 0 0 0 0 0
0 0 -0 -0 -0 0 0 0 -0 0 -0 0 0 0 0 0 0 0 -0 -0 0 0 0 0 0 0 0 0 0 0 0 0 0 0 0 0 0 0 0 0 0 0 0 0 0 0 0 0 0
0 -0 -0 -0 -0 -0 -0 0 0 0 0 -0 -0 -0 0 -0 -0 -0 -0 -0 -0 0 0 0 0 0 0 0 0 0 0 0 0 0 0 0 0 0 0 0 0 0 0 0 0 0 0 0 0
0 0 -0 -0 -0 -0 -0 0 0 0 0 0 -0 0 0 -0 -0 -0 -0 -0 -0 0 0 0 0 0 0 0 0 0 0 0 0 0 0 0 0 0 0 0 0 0 -0 0 0 0 0 -0 0
0 0 0 -0 -0 0 0 -0 0 0 -0 -0 -0 -0 -0 -0 -0 -0 -0 -0 -0 -0 -0 0 0 0 0 0 0 0 0 0 0 0 0 0 0 0 0 0 0 -0 -0 -0 -0 -0 -0 -0 -0
0 0 0 0 0 -0 -0 -0 0 0 0 0 0 0 -0 -0 -0 -0 -0 -0 -0 -0 -0 -0 -0 0 0 0 0 0 -0 0 0 0 0 -0 -0 -0 -0 -0 -0 -0 -0 -0 -0 -0 -0 -0 -0
0 0 0 0 0 0 0 -0 -0 0 0 0 0 0 0 0 0 0 -0 -0 -0 -0 -0 -0 -0 0 0 0 -0 -0 -0 -0 -0 -0 -0 -0 -0 -0 -0 -0 -0 -0 -0 -0 -0 -0 -0 -0 -0
0 0 0 0 0 0 0 -0 0 0 0 0 0 0 0 0 0 -0 -0 -0 -0 -0 -0 -0 -0 -0 -0 0 0 0 0 -0 -0 -0 -0 -0 -0 -0 -0 -0 -0 -0 -0 -0 -0 -0 -0 -0 -0
0 0 0 0 0 0 0 0 0 0 0 0 0 0 0 -0 0 0 0 0 0 0 0 0 0 0 0 0 0 0 0 0 0 0 0 0 -0 -0 -0 -0 -0 -0 -0 -0 -0 -0 -0 -0 -0
0 0 0 0 0 0 0 0 0 0 -0 0 0 -0 -0 -0 -0 0 0 0 0 0 0 0 0 0 0 0 0 0 0 0 0 0 0 0 0 0 0 0 0 0 0 0 0 0 0 0 0
0 0 0 0 0 0 0 0 -0 0 0 -0 -0 -0 -0 -0 -0 -0 -0 0 0 0 0 0 0 0 0 0 0 0 0 0 0 0 0 0 0 0 0 0 0 0 0 0 0 0 0 0 0
0 0 0 0 0 0 0 0 0 0 -0 0 0 -0 -0 -0 -0 -0 -0 0 0 0 0 0 0 0 0 0 0 0 0 0 0 0 0 0 0 0 0 0 0 0 0 0 0 0 0 0 0
0 0 0 0 0 0 0 0 -0 0 0 0 0 0 0 0 0 0 0 0 0 0 0 0 0 0 0 0 0 0 0 0 0 0 0 0 0 0 0 0 0 0 0 0 0 0 0 0 0
0 0 0 0 0 0 0 0 0 0 0 0 0 0 0 0 0 0 0 0 0 0 0 0 0 0 0 0 0 0 0 0 0 0 0 0 0 0 0 0 0 0 0 0 0 0 0 0 0
0 0 0 0 0 0 0 0 0 0 0 0 0 0 0 0 0 0 0 0 0 0 0 0 0 0 0 0 0 0 0 0 0 0 0 0 0 0 0 0 0 0 0 0 0 0 0 0 0
0 0 0 0 0 0 0 0 0 0 0 0 0 0 0 0 0 0 0 0 0 0 0 0 0 0 0 0 0 0 0 0 0 0 0 0 0 0 0 0 0 0 0 0 0 0 0 0 0
Wind_Speed_500mb
10 9 12 4 9 9 6 7 14 25 10 13 30 26 28 26 9 6 23 16 8 15 39 39 52 14 14 17 25 25 23 24 25 25 24 22 20 20 22 26 25 22 20 23 24 23 16 10 10
6 3 15 8 10 6 3 7 12 17 18 19 21 12 24 11 19 15 7 15 9 18 35 39 52 41 21 28 28 25 23 24 25 26 27 26 23 20 16 16 20 23 23 21 17 16 16 12 6
4 5 10 8 7 7 6 10 16 19 34 9 11 27 14 17 23 21 23 15 8 19 29 35 44 39 28 27 25 20 21 22 25 30 29 27 26 25 21 16 12 8 9 13 13 17 20 19 1
5 8 17 8 17 8 8 13 22 15 11 36 20 23 18 28 23 32 19 9 10 15 22 39 39 35 29 22 22 20 19 21 22 21 19 18 20 20 22 23 20 18 16 13 13 15 15 13 9
8 10 8 10 10 13 20 26 32 28 10 29 2 11 13 26 22 27 9 13 23 17 15 26 39 38 31 28 21 16 17 17 18 19 18 18 18 18 18 19 19 18 17 12 13 16 16 14 15
8 7 7 10 11 8 10 41 24 35 29 25 24 17 15 20 26 31 22 25 31 30 21 26 24 47 39 36 27 16 15 16 16 15 13 12 11 11 12 15 13 11 11 12 10 9 9 11 11
10 6 9 13 16 8 7 10 40 21 42 26 10 11 14 32 22 32 35 41 46 40 32 43 29 16 40 32 31 22 16 11 12 12 14 16 14 14 13 12 11 9 9 10 11 11 11 10 7
13 10 8 12 8 7 5 10 18 33 31 5 12 13 8 24 19 33 41 47 53 47 48 47 40 36 34 24 27 25 18 13 8 3 0 2 4 8 11 11 13 10 10 10 11 12 12 10 8
12 9 8 7 7 10 17 9 31 27 41 54 24 27 15 9 18 32 43 47 50 53 52 50 46 42 43 34 31 30 29 19 15 9 7 4 1 4 8 9 17 11 15 13 14 14 16 12 12
19 9 11 9 9 20 31 27 16 17 39 38 38 31 28 25 25 37 45 46 49 47 47 50 46 47 45 44 41 38 34 28 24 20 17 10 5 4 6 4 11 10 16 16 12 18 19 22 22
16 12 23 32 40 35 32 31 12 24 20 22 20 29 35 38 41 42 45 42 41 43 43 43 43 44 43 38 38 37 38 36 32 29 25 26 21 20 17 11 7 11 8 6 10 10 17 24 28
19 38 23 20 18 14 14 18 25 33 17 25 27 28 26 32 38 43 39 41 45 42 36 37 38 32 35 41 38 35 36 33 27 24 23 23 21 23 24 23 24 21 23 23 23 23 21 18 21
34 30 44 53 56 52 52 36 25 34 29 34 37 40 43 43 34 39 39 31 37 42 43 40 36 35 29 28 30 33 39 36 36 33 31 28 25 26 28 31 29 29 30 31 30 29 29 27 25
43 48 30 24 28 21 17 19 14 18 33 36 24 25 28 28 29 36 32 30 35 33 34 34 39 44 42 43 40 39 36 38 36 37 37 35 36 35 35 34 35 35 37 38 38 37 36 35 33
45 30 27 15 12 15 9 18 9 21 14 11 15 20 23 23 28 29 28 27 28 31 25 30 35 38 38 41 40 39 40 41 43 43 41 42 42 43 42 41 43 44 42 41 40 39 38 37 37
8 7 6 3 6 3 5 3 2 15 10 3 7 12 19 23 26 25 22 25 30 27 28 27 30 31 36 40 41 41 40 41 42 43 43 43 43 44 44 45 47 49 50 48 50 52 51 48 47
9 7 7 3 10 7 5 5 16 15 11 12 2 7 11 14 16 18 18 22 28 28 30 30 31 30 33 34 36 37 38 39 39 40 41 43 46 47 48 50 52 53 54 56 57 59 61 60 56
8 10 8 9 11 16 15 8 19 23 14 12 5 1 3 6 8 10 14 18 22 27 29 29 30 29 29 30 32 33 35 38 37 39 40 41 45 47 49 51 55 58 61 62 64 65 67 70 72
16 14 13 3 7 11 7 7 12 18 22 19 15 10 7 1 4 6 12 14 16 19 22 24 25 28 26 24 27 28 33 33 33 33 35 38 42 45 48 51 53 57 61 65 68 70 73 77 82
15 14 6 6 7 9 7 7 11 23 28 30 26 22 17 12 7 7 8 10 12 13 16 17 20 21 21 22 26 28 29 30 31 31 33 37 41 44 47 48 52 54 56 60 64 68 72 73 77
9 6 4 7 6 8 9 7 9 18 32 34 35 30 26 21 14 12 11 12 13 12 12 12 13 14 16 18 20 21 24 24 24 28 31 37 39 42 44 46 49 51 53 56 57 61 66 68 67
6 3 3 7 5 4 6 6 11 14 18 34 48 44 39 31 22 16 14 15 14 13 11 9 8 8 7 10 12 15 17 21 24 27 32 35 38 40 41 44 46 48 50 51 55 56 58 61 63
6 0 3 4 6 6 4 7 10 9 16 27 55 59 52 42 33 25 19 19 18 17 15 12 10 6 3 3 6 11 13 15 20 22 26 29 32 37 41 45 48 49 49 49 52 54 55 58 59
3 5 10 7 5 6 8 8 8 13 20 14 51 70 65 56 49 40 28 25 24 23 21 17 14 10 6 2 3 7 12 15 16 18 22 28 34 38 43 47 50 51 51 52 52 53 54 57 58
3 8 6 9 7 9 2 5 18 14 15 25 54 78 76 66 61 54 46 34 28 26 22 19 16 13 10 9 7 9 12 14 17 21 26 31 35 38 41 44 46 48 49 50 50 51 52 54 58
4 7 9 11 4 8 9 11 11 12 32 34 35 56 70 71 67 61 53 43 33 27 26 25 21 17 15 13 12 14 16 18 20 24 28 31 36 39 42 44 47 49 52 54 53 54 55 57 59
5 4 5 14 1 7 5 15 15 5 11 25 29 45 59 73 73 70 60 51 42 36 30 27 26 21 18 17 19 20 21 24 26 29 33 35 38 42 44 46 48 50 54 57 58 58 60 62 64
4 9 5 6 1 7 9 11 12 12 23 18 34 52 63 66 70 68 64 56 48 41 33 32 30 26 22 23 23 24 26 28 30 34 36 38 40 43 45 46 48 50 54 59 61 61 62 65 67
4 5 4 6 7 10 3 12 15 19 20 29 52 65 64 70 71 67 63 57 49 42 39 35 34 31 28 27 25 26 27 29 33 36 37 40 42 46 49 50 51 54 58 61 64 64 65 68 72
4 10 11 9 11 6 4 14 11 18 21 39 61 68 67 64 69 65 60 56 53 48 42 39 36 37 34 31 34 35 33 34 38 40 41 43 46 48 52 53 55 58 61 64 66 67 66 70 77
Wind_Direction_500mb
259 265 231 48 85 68 56 53 25 25 33 53 74 75 96 62 30 98 323 334 2 58 74 73 60 76 108 109 106 100 91 84 82 78 77 79 87 94 96 94 78 73 70 69 59 54 44 43 53
252 155 159 84 88 146 182 356 15 5 333 137 72 58 48 80 19 313 340 345 77 80 82 85 60 80 119 118 116 119 105 90 84 84 82 80 76 73 76 93 100 91 83 75 60 35 20 3 24
17 164 99 81 77 118 133 25 322 326 43 352 98 52 53 358 343 340 340 3 87 103 101 113 81 98 116 124 125 121 111 99 98 92 85 86 85 82 80 82 78 51 27 22 3 356 346 345 338
107 78 63 95 110 54 38 14 336 342 34 36 92 67 77 10 350 344 341 41 109 119 116 130 125 124 136 131 118 115 101 92 87 91 95 89 89 95 92 80 80 66 47 32 21 9 4 21 7
98 73 87 80 97 121 57 24 30 52 62 13 291 86 69 5 30 6 19 101 91 112 142 140 146 144 140 136 123 114 102 97 90 86 84 81 77 85 83 78 73 76 66 52 51 47 42 24 11
72 83 76 125 101 139 71 28 43 43 43 42 74 90 63 7 49 36 64 98 93 92 114 131 142 153 155 143 133 126 110 100 91 85 79 74 78 78 84 71 69 64 33 24 26 30 50 34 24
81 52 80 76 117 96 42 60 30 45 29 25 64 88 97 36 38 57 71 78 83 89 98 99 100 141 147 149 138 139 124 105 76 62 42 24 26 30 32 47 36 25 15 6 358 357 358 357 6
79 80 75 31 133 66 63 88 38 42 37 308 62 41 38 17 59 78 75 84 87 86 89 88 98 100 87 120 137 140 136 138 127 114 348 51 332 354 347 341 328 348 353 352 349 339 333 341 336
69 67 49 56 76 129 154 114 62 61 63 56 76 67 53 57 101 95 84 83 86 86 85 89 92 91 95 99 97 107 112 118 121 110 93 131 270 322 302 299 310 327 315 305 319 317 312 306 301
53 67 42 23 80 102 91 102 94 76 67 50 65 82 88 88 83 87 81 72 77 80 83 85 86 92 96 98 98 95 99 101 96 93 95 88 65 71 359 325 309 303 310 291 283 286 290 296 296
45 88 98 78 97 103 101 70 96 113 65 44 26 63 72 80 76 65 70 69 63 72 77 79 80 85 90 95 93 95 91 89 89 83 80 78 80 78 78 75 53 29 36 359 305 290 280 283 291
99 64 77 104 86 90 68 91 71 66 98 99 90 83 88 91 80 75 59 68 70 65 71 74 75 73 79 83 80 77 79 79 81 74 67 62 60 58 52 42 39 31 25 18 11 8 5 343 325
62 79 74 93 92 88 93 77 85 66 96 99 87 83 77 77 86 84 77 64 78 77 72 69 75 74 68 67 75 68 65 64 62 66 66 60 54 45 41 42 36 28 19 14 9 3 360 359 354
113 105 102 89 87 84 78 55 65 81 105 88 76 75 77 70 68 77 87 81 78 80 83 79 80 82 81 80 78 80 75 74 73 69 61 55 54 54 48 41 35 31 28 20 13 5 0 359 356
117 104 118 135 133 156 22 28 22 128 118 59 66 69 75 75 72 73 72 77 83 81 83 85 77 77 81 80 81 79 76 72 68 67 64 59 55 50 45 40 36 31 25 19 14 10 3 359 358
128 150 90 38 218 90 244 261 238 152 126 50 24 62 71 74 74 73 77 78 81 80 82 81 79 78 81 81 78 77 74 70 67 63 60 55 51 46 43 39 34 27 22 20 15 8 4 2 357
36 97 80 114 33 118 8 190 205 195 244 295 327 56 58 70 82 89 85 86 87 86 87 89 92 90 84 82 80 77 73 69 64 60 55 50 47 43 39 36 32 26 22 19 18 14 8 1 358
142 99 41 46 10 71 76 102 197 226 235 258 232 60 69 65 78 97 100 96 93 89 94 94 93 89 82 78 77 73 70 65 60 57 54 47 43 39 35 33 29 25 20 17 15 14 13 6 359
89 95 109 167 218 77 69 155 214 215 228 231 234 222 214 138 90 101 126 115 107 104 99 98 97 92 91 90 85 79 69 64 60 55 49 43 38 33 29 27 25 24 20 18 13 11 12 9 1
72 93 78 68 140 87 198 238 238 220 224 219 217 217 217 218 201 198 159 149 142 128 114 105 97 92 87 81 72 68 67 64 58 51 44 39 34 29 26 23 22 19 18 16 13 11 10 13 10
36 86 208 144 130 63 128 301 218 236 232 229 228 227 224 224 217 209 191 176 179 163 145 129 110 97 84 73 70 67 63 62 58 50 41 35 29 25 21 18 15 14 12 12 11 10 9 9 12
78 351 75 121 57 163 144 258 247 218 224 228 229 225 227 223 222 218 210 201 195 191 178 162 148 117 103 88 66 60 55 48 43 37 32 28 21 17 15 12 10 8 7 6 7 6 5 3 4
161 271 75 84 74 60 322 72 249 160 234 227 220 224 226 224 222 219 214 206 204 201 201 199 195 184 158 82 42 30 29 30 27 22 17 15 12 10 9 7 4 2 359 359 358 358 358 357 356
120 85 36 49 76 11 232 133 256 191 209 217 218 224 224 220 220 219 217 211 208 209 209 209 214 215 226 270 338 342 354 358 355 356 359 1 1 0 359 359 357 354 350 349 349 348 347 347 346
66 73 355 357 6 222 104 37 247 231 217 206 207 218 220 219 219 218 219 217 214 216 219 223 223 224 235 252 276 311 320 324 329 338 344 348 347 347 347 347 345 345 341 340 339 338 338 338 335
143 156 156 209 222 270 352 240 248 219 234 228 234 221 218 219 220 221 223 224 223 224 225 227 231 232 243 258 276 283 291 305 318 323 325 330 332 335 335 336 336 336 335 333 333 332 331 330 329
198 203 145 103 186 47 242 279 292 213 209 213 216 213 217 217 219 221 223 226 227 231 234 237 238 239 246 262 272 279 286 296 306 310 312 317 320 322 323 323 325 325 326 326 326 327 326 325 325
208 152 69 3 109 283 283 276 245 238 231 223 221 216 216 217 219 221 222 227 228 233 239 242 245 249 252 260 273 280 283 289 295 298 305 306 307 307 310 311 314 316 318 320 320 321 322 322 322
163 196 51 122 147 178 241 258 215 219 207 213 223 220 217 216 217 220 222 226 229 234 237 245 246 250 253 257 263 272 279 282 285 292 300 302 302 304 304 306 308 310 312 315 315 317 320 321 321
237 210 164 133 237 236 154 268 215 216 227 223 230 226 223 223 223 224 225 227 229 233 239 246 250 253 255 256 258 269 278 285 285 290 294 297 299 301 300 302 304 304 306 310 312 315 318 319 319
Wind_Speed_850mb
10 9 12 4 9 9 6 7 14 25 10 13 30 26 28 26 9 6 23 16 8 15 39 39 52 14 14 17 25 25 23 24 25 25 24 22 20 20 22 26 25 22 20 23 24 23 16 10 10
6 3 15 8 10 6 3 7 12 17 18 19 21 12 24 11 19 15 7 15 9 18 35 39 52 41 21 28 28 25 23 24 25 26 27 26 23 20 16 16 20 23 23 21 17 16 16 12 6
4 5 10 8 7 7 6 10 16 19 34 9 11 27 14 17 23 21 23 15 8 19 29 35 44 39 28 27 25 20 21 22 25 30 29 27 26 25 21 16 12 8 9 13 13 17 20 19 1
5 8 17 8 17 8 8 13 22 15 11 36 20 23 18 28 23 32 19 9 10 15 22 39 39 35 29 22 22 20 19 21 22 21 19 18 20 20 22 23 20 18 16 13 13 15 15 13 9
8 10 8 10 10 13 20 26 32 28 10 29 2 11 13 26 22 27 9 13 23 17 15 26 39 38 31 28 21 16 17 17 18 19 18 18 18 18 18 19 19 18 17 12 13 16 16 14 15
8 7 7 10 11 8 10 41 24 35 29 25 24 17 15 20 26 31 22 25 31 30 21 26 24 47 39 36 27 16 15 16 16 15 13 12 11 11 12 15 13 11 11 12 10 9 9 11 11
10 6 9 13 16 8 7 10 40 21 42 26 10 11 14 32 22 32 35 41 46 40 32 43 29 16 40 32 31 22 16 11 12 12 14 16 14 14 13 12 11 9 9 10 11 11 11 10 7
13 10 8 12 8 7 5 10 18 33 31 5 12 13 8 24 19 33 41 47 53 47 48 47 40 36 34 24 27 25 18 13 8 3 0 2 4 8 11 11 13 10 10 10 11 12 12 10 8
12 9 8 7 7 10 17 9 31 27 41 54 24 27 15 9 18 32 43 47 50 53 52 50 46 42 43 34 31 30 29 19 15 9 7 4 1 4 8 9 17 11 15 13 14 14 16 12 12
19 9 11 9 9 20 31 27 16 17 39 38 38 31 28 25 25 37 45 46 49 47 47 50 46 47 45 44 41 38 34 28 24 20 17 10 5 4 6 4 11 10 16 16 12 18 19 22 22
16 12 23 32 40 35 32 31 12 24 20 22 20 29 35 38 41 42 45 42 41 43 43 43 43 44 43 38 38 37 38 36 32 29 25 26 21 20 17 11 7 11 8 6 10 10 17 24 28
19 38 23 20 18 14 14 18 25 33 17 25 27 28 26 32 38 43 39 41 45 42 36 37 38 32 35 41 38 35 36 33 27 24 23 23 21 23 24 23 24 21 23 23 23 23 21 18 21
34 30 44 53 56 52 52 36 25 34 29 34 37 40 43 43 34 39 39 31 37 42 43 40 36 35 29 28 30 33 39 36 36 33 31 28 25 26 28 31 29 29 30 31 30 29 29 27 25
43 48 30 24 28 21 17 19 14 18 33 36 24 25 28 28 29 36 32 30 35 33 34 34 39 44 42 43 40 39 36 38 36 37 37 35 36 35 35 34 35 35 37 38 38 37 36 35 33
45 30 27 15 12 15 9 18 9 21 14 11 15 20 23 23 28 29 28 27 28 31 25 30 35 38 38 41 40 39 40 41 43 43 41 42 42 43 42 41 43 44 42 41 40 39 38 37 37
8 7 6 3 6 3 5 3 2 15 10 3 7 12 19 23 26 25 22 25 30 27 28 27 30 31 36 40 41 41 40 41 42 43 43 43 43 44 44 45 47 49 50 48 50 52 51 48 47
9 7 7 3 10 7 5 5 16 15 11 12 2 7 11 14 16 18 18 22 28 28 30 30 31 30 33 34 36 37 38 39 39 40 41 43 46 47 48 50 52 53 54 56 57 59 61 60 56
8 10 8 9 11 16 15 8 19 23 14 12 5 1 3 6 8 10 14 18 22 27 29 29 30 29 29 30 32 33 35 38 37 39 40 41 45 47 49 51 55 58 61 62 64 65 67 70 72
16 14 13 3 7 11 7 7 12 18 22 19 15 10 7 1 4 6 12 14 16 19 22 24 25 28 26 24 27 28 33 33 33 33 35 38 42 45 48 51 53 57 61 65 68 70 73 77 82
15 14 6 6 7 9 7 7 11 23 28 30 26 22 17 12 7 7 8 10 12 13 16 17 20 21 21 22 26 28 29 30 31 31 33 37 41 44 47 48 52 54 56 60 64 68 72 73 77
9 6 4 7 6 8 9 7 9 18 32 34 35 30 26 21 14 12 11 12 13 12 12 12 13 14 16 18 20 21 24 24 24 28 31 37 39 42 44 46 49 51 53 56 57 61 66 68 67
6 3 3 7 5 4 6 6 11 14 18 34 48 44 39 31 22 16 14 15 14 13 11 9 8 8 7 10 12 15 17 21 24 27 32 35 38 40 41 44 46 48 50 51 55 56 58 61 63
6 0 3 4 6 6 4 7 10 9 16 27 55 59 52 42 33 25 19 19 18 17 15 12 10 6 3 3 6 11 13 15 20 22 26 29 32 37 41 45 48 49 49 49 52 54 55 58 59
3 5 10 7 5 6 8 8 8 13 20 14 51 70 65 56 49 40 28 25 24 23 21 17 14 10 6 2 3 7 12 15 16 18 22 28 34 38 43 47 50 51 51 52 52 53 54 57 58
3 8 6 9 7 9 2 5 18 14 15 25 54 78 76 66 61 54 46 34 28 26 22 19 16 13 10 9 7 9 12 14 17 21 26 31 35 38 41 44 46 48 49 50 50 51 52 54 58
4 7 9 11 4 8 9 11 11 12 32 34 35 56 70 71 67 61 53 43 33 27 26 25 21 17 15 13 12 14 16 18 20 24 28 31 36 39 42 44 47 49 52 54 53 54 55 57 59
5 4 5 14 1 7 5 15 15 5 11 25 29 45 59 73 73 70 60 51 42 36 30 27 26 21 18 17 19 20 21 24 26 29 33 35 38 42 44 46 48 50 54 57 58 58 60 62 64
4 9 5 6 1 7 9 11 12 12 23 18 34 52 63 66 70 68 64 56 48 41 33 32 30 26 22 23 23 24 26 28 30 34 36 38 40 43 45 46 48 50 54 59 61 61 62 65 67
4 5 4 6 7 10 3 12 15 19 20 29 52 65 64 70 71 67 63 57 49 42 39 35 34 31 28 27 25 26 27 29 33 36 37 40 42 46 49 50 51 54 58 61 64 64 65 68 72
4 10 11 9 11 6 4 14 11 18 21 39 61 68 67 64 69 65 60 56 53 48 42 39 36 37 34 31 34 35 33 34 38 40 41 43 46 48 52 53 55 58 61 64 66 67 66 70 77
Wind_Direction_850mb
259 265 231 48 85 68 56 53 25 25 33 53 74 75 96 62 30 98 323 334 2 58 74 73 60 76 108 109 106 100 91 84 82 78 77 79 87 94 96 94 78 73 70 69 59 54 44 43 53
252 155 159 84 88 146 182 356 15 5 333 137 72 58 48 80 19 313 340 345 77 80 82 85 60 80 119 118 116 119 105 90 84 84 82 80 76 73 76 93 100 91 83 75 60 35 20 3 24
17 164 99 81 77 118 133 25 322 326 43 352 98 52 53 358 343 340 340 3 87 103 101 113 81 98 116 124 125 121 111 99 98 92 85 86 85 82 80 82 78 51 27 22 3 356 346 345 338
107 78 63 95 110 54 38 14 336 342 34 36 92 67 77 10 350 344 341 41 109 119 116 130 125 124 136 131 118 115 101 92 87 91 95 89 89 95 92 80 80 66 47 32 21 9 4 21 7
98 73 87 80 97 121 57 24 30 52 62 13 291 86 69 5 30 6 19 101 91 112 142 140 146 144 140 136 123 114 102 97 90 86 84 81 77 85 83 78 73 76 66 52 51 47 42 24 11
72 83 76 125 101 139 71 28 43 43 43 42 74 90 63 7 49 36 64 98 93 92 114 131 142 153 155 143 133 126 110 100 91 85 79 74 78 78 84 71 69 64 33 24 26 30 50 34 24
81 52 80 76 117 96 42 60 30 45 29 25 64 88 97 36 38 57 71 78 83 89 98 99 100 141 147 149 138 139 124 105 76 62 42 24 26 30 32 47 36 25 15 6 358 357 358 357 6
79 80 75 31 133 66 63 88 38 42 37 308 62 41 38 17 59 78 75 84 87 86 89 88 98 100 87 120 137 140 136 138 127 114 348 51 332 354 347 341 328 348 353 352 349 339 333 341 336
69 67 49 56 76 129 154 114 62 61 63 56 76 67 53 57 101 95 84 83 86 86 85 89 92 91 95 99 97 107 112 118 121 110 93 131 270 322 302 299 310 327 315 305 319 317 312 306 301
53 67 42 23 80 102 91 102 94 76 67 50 65 82 88 88 83 87 81 72 77 80 83 85 86 92 96 98 98 95 99 101 96 93 95 88 65 71 359 325 309 303 310 291 283 286 290 296 296
45 88 98 78 97 103 101 70 96 113 65 44 26 63 72 80 76 65 70 69 63 72 77 79 80 85 90 95 93 95 91 89 89 83 80 78 80 78 78 75 53 29 36 359 305 290 280 283 291
99 64 77 104 86 90 68 91 71 66 98 99 90 83 88 91 80 75 59 68 70 65 71 74 75 73 79 83 80 77 79 79 81 74 67 62 60 58 52 42 39 31 25 18 11 8 5 343 325
62 79 74 93 92 88 93 77 85 66 96 99 87 83 77 77 86 84 77 64 78 77 72 69 75 74 68 67 75 68 65 64 62 66 66 60 54 45 41 42 36 28 19 14 9 3 360 359 354
113 105 102 89 87 84 78 55 65 81 105 88 76 75 77 70 68 77 87 81 78 80 83 79 80 82 81 80 78 80 75 74 73 69 61 55 54 54 48 41 35 31 28 20 13 5 0 359 356
117 104 118 135 133 156 22 28 22 128 118 59 66 69 75 75 72 73 72 77 83 81 83 85 77 77 81 80 81 79 76 72 68 67 64 59 55 50 45 40 36 31 25 19 14 10 3 359 358
128 150 90 38 218 90 244 261 238 152 126 50 24 62 71 74 74 73 77 78 81 80 82 81 79 78 81 81 78 77 74 70 67 63 60 55 51 46 43 39 34 27 22 20 15 8 4 2 357
36 97 80 114 33 118 8 190 205 195 244 295 327 56 58 70 82 89 85 86 87 86 87 89 92 90 84 82 80 77 73 69 64 60 55 50 47 43 39 36 32 26 22 19 18 14 8 1 358
142 99 41 46 10 71 76 102 197 226 235 258 232 60 69 65 78 97 100 96 93 89 94 94 93 89 82 78 77 73 70 65 60 57 54 47 43 39 35 33 29 25 20 17 15 14 13 6 359
89 95 109 167 218 77 69 155 214 215 228 231 234 222 214 138 90 101 126 115 107 104 99 98 97 92 91 90 85 79 69 64 60 55 49 43 38 33 29 27 25 24 20 18 13 11 12 9 1
72 93 78 68 140 87 198 238 238 220 224 219 217 217 217 218 201 198 159 149 142 128 114 105 97 92 87 81 72 68 67 64 58 51 44 39 34 29 26 23 22 19 18 16 13 11 10 13 10
36 86 208 144 130 63 128 301 218 236 232 229 228 227 224 224 217 209 191 176 179 163 145 129 110 97 84 73 70 67 63 62 58 50 41 35 29 25 21 18 15 14 12 12 11 10 9 9 12
78 351 75 121 57 163 144 258 247 218 224 228 229 225 227 223 222 218 210 201 195 191 178 162 148 117 103 88 66 60 55 48 43 37 32 28 21 17 15 12 10 8 7 6 7 6 5 3 4
161 271 75 84 74 60 322 72 249 160 234 227 220 224 226 224 222 219 214 206 204 201 201 199 195 184 158 82 42 30 29 30 27 22 17 15 12 10 9 7 4 2 359 359 358 358 358 357 356
120 85 36 49 76 11 232 133 256 191 209 217 218 224 224 220 220 219 217 211 208 209 209 209 214 215 226 270 338 342 354 358 355 356 359 1 1 0 359 359 357 354 350 349 349 348 347 347 346
66 73 355 357 6 222 104 37 247 231 217 206 207 218 220 219 219 218 219 217 214 216 219 223 223 224 235 252 276 311 320 324 329 338 344 348 347 347 347 347 345 345 341 340 339 338 338 338 335
143 156 156 209 222 270 352 240 248 219 234 228 234 221 218 219 220 221 223 224 223 224 225 227 231 232 243 258 276 283 291 305 318 323 325 330 332 335 335 336 336 336 335 333 333 332 331 330 329
198 203 145 103 186 47 242 279 292 213 209 213 216 213 217 217 219 221 223 226 227 231 234 237 238 239 246 262 272 279 286 296 306 310 312 317 320 322 323 323 325 325 326 326 326 327 326 325 325
208 152 69 3 109 283 283 276 245 238 231 223 221 216 216 217 219 221 222 227 228 233 239 242 245 249 252 260 273 280 283 289 295 298 305 306 307 307 310 311 314 316 318 320 320 321 322 322 322
163 196 51 122 147 178 241 258 215 219 207 213 223 220 217 216 217 220 222 226 229 234 237 245 246 250 253 257 263 272 279 282 285 292 300 302 302 304 304 306 308 310 312 315 315 317 320 321 321
237 210 164 133 237 236 154 268 215 216 227 223 230 226 223 223 223 224 225 227 229 233 239 246 250 253 255 256 258 269 278 285 285 290 294 297 299 301 300 302 304 304 306 310 312 315 318 319 319